Regional Weather Roundup
Issued by NWS

Home | Current Version | Previous Version | Text Only | Print | Product List | Glossary On
Versions: 1 2 3 4 5 6 7 8 9 10 11 12 13 14 15 16 17 18 19 20 21 22 23 24 25 26 27 28 29 30 31 32 33 34 35 36 37 38 39 40 41 42 43 44 45 46 47 48 49 50
000
ASUS42 KTBW 080216
RWRFL
FLORIDA REGIONAL WEATHER ROUNDUP
NATIONAL WEATHER SERVICE TAMPA BAY RUSKIN FL
1000 PM EDT TUE JUL 07 2015

NOTE: "FAIR" INDICATES FEW OR NO CLOUDS BELOW 12,000 FEET WITH NO
SIGNIFICANT WEATHER AND/OR OBSTRUCTIONS TO VISIBILITY.


FLZ001>010-012>015-112-114-115-080300-
PANHANDLE FLORIDA

CITY           SKY/WX    TMP DP  RH WIND       PRES   REMARKS
PENSACOLA      CLEAR     82  74  76 W8        30.13R
PENSACOLA NAS  CLEAR     79  73  82 W3        30.13R
MILTON NAS     PTCLDY    80  74  81 SW5       30.14
CRESTVIEW      PTCLDY    83  74  74 SW5       30.14S
DUKE FIELD     PTCLDY    83  73  70 SW6       30.13R
VALPARAISO     PTCLDY    83  74  75 W2        30.13R
MARY ESTHER    PTCLDY    83  74  73 W1        30.12R
TRI COUNTY     FAIR      80  75  84 CALM      30.14R
PANAMA CITY    FAIR      82  75  79 W5        30.12S
TYNDALL AFB    PTCLDY    83  75  78 W5        30.13R
APALACHICOLA   CLEAR     82  73  74 NW5       30.13R

STATION/POSITION SKY/WX   TEMP    WIND        PRES    WAVE   SWELL
                          AIR SEA DIR/SP/G            HT/PER HT/PER
                          (F)     (DEG/KT/KT) (MB)    (FT/S) (FT/S)
30.1N   87.6W              85 86  210/  6/  8 1019.7R   1/ 6   2/ 6
29.2N   88.2W              85 87  160/  8/ 10 1020.7R   2/ 6   2/ 6
28.8N   86.0W              83 86  170/  4/  4 1020.7R   1/10   2/10
PANAMA CITY BEAC           84 84  270/  7/  8 1020.2R
CAPE SAN BLAS    NOT AVBL
TOWER C                    83     250/  4/  5 1020.4R
28.5N   84.5W              84 86     CALM     1020.4R   1/ 9   2/ 9

$$
FLZ011-016>038-118-127-128-134-139-239-080300-
NORTH FLORIDA

CITY           SKY/WX    TMP DP  RH WIND       PRES   REMARKS
MARIANNA       CLEAR     82  76  81 S6        30.12R
TALLAHASSEE    PTCLDY    83  72  69 CALM      30.13R
PERRY          CLOUDY    78  70  76 E9G21     30.18R THUNDER
CROSS CITY       N/A     73  71  93 N9        30.18R
LAKE CITY      LGT RAIN  72  70  94 SW5       30.18S
GAINESVILLE    CLOUDY    73  71  93 NW6       30.17R
MAYPORT NAS    MOCLDY    77  70  79 CALM      30.15R
JACKSONVILLE   CLOUDY    73  71  93 W5        30.16R
JAX NAS        CLOUDY    78  72  81 W5        30.17R
JAX CRAIG      CLOUDY    78  70  76 W3        30.15R
JAX CECIL      PTCLDY    72  72 100 W5        30.17R
FERNANDINA BEA FAIR      79  72  78 SW5       30.15R
ST AUGUSTINE   CLOUDY    76  72  87 W3        30.17R

STATION/POSITION SKY/WX   TEMP    WIND        PRES    WAVE   SWELL
                          AIR SEA DIR/SP/G            HT/PER HT/PER
                          (F)     (DEG/KT/KT) (MB)    (FT/S) (FT/S)
SHELL POINT                85     250/  9/ 11   N/A
KEATON BEACH               78      50/ 14/ 21 1021.4R
CEDAR KEY                  84      CALM  /  1 1021.0R
FERNANDINA                 80 85  210/  8/ 10 1020.1R
30.7N   81.3W                 78                N/A     2/ 9
MAYPORT                    79 80  220/  6/  7 1020.9F
31.4N   80.9W              80 80  200/ 10/ 12 1021.3R   2/ 8   2/ 8
ST AUGUSTINE               78 75   CALM  /  2 1022.3R

$$
FLZ040-043>046-052-053-057-058-063-144-080300-
INTERIOR CENTRAL FLORIDA

CITY           SKY/WX    TMP DP  RH WIND       PRES   REMARKS
OCALA          CLOUDY    75  70  83 CALM      30.16R
THE VILLAGES     N/A    N/A N/A N/A CALM      30.07R
LEESBURG       MOCLDY    77  73  87 CALM      30.17R
SANFORD        PTCLDY    74  71  91 CALM      30.15S
ORLANDO EXEC   PTCLDY    74  73  97 CALM      30.15S
ORLANDO INTL   PTCLDY    75  74  96 SE5       30.15F
KISSIMMEE      CLEAR     75  75 100 CALM      30.16S
WINTER HAVEN   MOCLDY    75  73  93 SW5       30.17S
LAKELAND       CLEAR     73  73 100 CALM      30.16R
OKEECHOBEE     MOCLDY    73  72  94 N3        30.15R

$$
FLZ041-047-054-059-064-141-147-080300-
EAST CENTRAL FLORIDA

CITY           SKY/WX    TMP DP  RH WIND       PRES   REMARKS
DAYTONA BEACH  MOCLDY    75  72  90 CALM      30.17R
DELAND           N/A     73  72  94 CALM      30.17R
NEW SMYRNA BEA PTCLDY    77  72  83 SW6       30.16R
JFK SPACE CTR  MOCLDY    74  70  87 N1        30.14S
CAPE CANAVERAL MOCLDY    75  71  87 NE5       30.14R
PATRICK AFB    MOCLDY    79  74  84 CALM      30.15R
MELBOURNE      PTCLDY    75  74  96 W6        30.15R
VERO BEACH     CLEAR     81  75  82 E8        30.14R
FT PIERCE      CLEAR     81  75  82 SE7       30.13R
STUART         CLEAR     79  73  83 SE5       30.15R

STATION/POSITION SKY/WX   TEMP    WIND        PRES    WAVE   SWELL
                          AIR SEA DIR/SP/G            HT/PER HT/PER
                          (F)     (DEG/KT/KT) (MB)    (FT/S) (FT/S)
28.5N   80.2W              82 83  160/  4/  6 1021.0S
28.9N   78.5W              83 83  180/  4/  6 1021.8R
TRIDENT PIER               78 80   CALM  /  2 1021.2R
28.4N   80.5W                 80                N/A     2/ 8
27.5N   80.2W                 81                N/A     2/ 9

$$
FLZ050-056-061-142-242-148-248-149-249-151-251-155-255-
160-260-080300-
WEST CENTRAL FLORIDA

CITY           SKY/WX    TMP DP  RH WIND       PRES   REMARKS
CRYSTAL RIVER  FAIR      77  72  83 CALM      30.15R
INVERNESS      FAIR     N/A N/A N/A CALM      30.16R
BROOKSVILLE    MOCLDY    75  71  87 SE3       30.16R
ZEPHYRHILLS    FAIR      70  70 100 CALM      30.17R
CLEARWATER     MOCLDY    77  72  84 E3        30.15R
TAMPA INTL     CLOUDY    78  70  76 NE3       30.15S
TAMPA EXEC     MOCLDY   N/A N/A N/A CALM      30.16S
PLANT CITY     MOCLDY    75  75 100 CALM      30.17F FOG
MACDILL AFB    MOCLDY    77  73  87 E2        30.15R
PETER O KNIGHT MOCLDY    79  70  73 CALM      30.15S
ST PETERSBURG  MOCLDY    79  70  74 S5        30.13R
SARASOTA       MOCLDY    74  72  93 E5        30.13R
VENICE         FAIR      75  73  94 NE9       30.15R

STATION/POSITION SKY/WX   TEMP    WIND        PRES    WAVE   SWELL
                          AIR SEA DIR/SP/G            HT/PER HT/PER
                          (F)     (DEG/KT/KT) (MB)    (FT/S) (FT/S)
CEDAR KEY                  84      CALM  /  1 1021.0R
28.5N   84.5W              84 86     CALM     1020.4R   1/ 9   2/ 9
27.3N   84.2W                 87                N/A     1/ 8
CLEARWATER BEACH           80 89  130/  7/  9 1020.5R
MIDDLE TAMPA BAY                  100/  4/  5 1020.7R
VENICE                     80 89   80/  6/  7 1019.6R

$$
FLZ066-069-070-075>078-162-262-165-265-080300-
SOUTHWEST FLORIDA AND KEYS

CITY           SKY/WX    TMP DP  RH WIND       PRES   REMARKS
PUNTA GORDA    PTCLDY    75  72  90 E6        30.15R
FT MYERS       CLEAR     79  73  82 E3        30.12R
SOUTHWEST INTL CLEAR     78  72  81 NE5       30.13R
NAPLES         CLEAR     77  72  83 MISG      30.12R
MARCO ISLAND   CLOUDY    73  70  88 SE5       30.12R
MARATHON       CLEAR     85  74  69 E7        30.12R
KEY WEST NAS   PTCLDY    85  74  69 E12       30.12R
KEY WEST INTL  PTCLDY    85  75  72 E14       30.12R

STATION/POSITION SKY/WX   TEMP    WIND        PRES    WAVE   SWELL
                          AIR SEA DIR/SP/G            HT/PER HT/PER
                          (F)     (DEG/KT/KT) (MB)    (FT/S) (FT/S)
VENICE                     80 89   80/  6/  7 1019.6R
NAPLES                        87              1020.5F
26.0N   85.6W              85 86   80/  8/  8 1019.2R   2/10   2/10
DRY TORTUGAS               85     120/  9/ 11 1019.0R
NW FL BAY                  86      70/ 11/ 17 1019.8
SAND KEY                   84     100/ 14/ 16 1019.6R
SOMBRERO KEY               84     100/ 12/ 13 1020.5R
LONG KEY                   84 88  110/ 10/ 12 1020.9R
MOLASSES REEF              84 86  110/ 12/ 13 1020.3R

$$
FLZ067-068-071>074-168-172>174-080300-
SOUTHEAST FLORIDA

CITY           SKY/WX    TMP DP  RH WIND       PRES   REMARKS
W PALM BEACH   PTCLDY    83  75  77 SE9       30.14S
FT LAUDER-EXEC CLEAR     84  72  67 E9        30.13S
FT LAUDERDALE  MOCLDY    84  74  71 E10       30.12S
POMPANO BEACH  PTCLDY    83  75  77 E7        30.13S
PEMBROKE PINES CLEAR     83  72  69 E8        30.14S
OPA LOCKA      CLEAR     82  72  71 SE6       30.13R
MIAMI          MOCLDY    83  71  67 E7        30.13S
WEST KENDALL   CLEAR     81  73  76 E8        30.13S
HOMESTEAD      CLEAR     82  73  74 E5        30.12S

STATION/POSITION SKY/WX   TEMP    WIND        PRES    WAVE   SWELL
                          AIR SEA DIR/SP/G            HT/PER HT/PER
                          (F)     (DEG/KT/KT) (MB)    (FT/S) (FT/S)
PORT EVERGLADES            84     100/  2/  5 1020.2F
VIRGINIA KEY               84 88  100/  5/  8 1019.9F
LAKE WORTH                 83 86   90/  7/  9 1020.1F
SETTLEMENT POINT           81     150/  5/  6 1021.8R

$$



USA.gov is the U.S. government's official web portal to all federal, state and local government web resources and services.